owner,sensor,date,latitude,longitude,vertical_datum,sea_water_practical_salinity,qcFlag 
DISL,ioos:station:DISL:BSCA:1,2014-04-01T00:00:00Z,30.3288,-87.8293,1.632,7.33,1111122 
DISL,ioos:station:DISL:BSCA:1,2014-04-01T00:30:00Z,30.3288,-87.8293,1.622,7.35,1111122 
DISL,ioos:station:DISL:BSCA:1,2014-04-01T01:00:00Z,30.3288,-87.8293,1.617,7.41,1111122 
DISL,ioos:station:DISL:BSCA:1,2014-04-01T01:30:00Z,30.3288,-87.8293,1.62,7.4,1111122 
DISL,ioos:station:DISL:BSCA:1,2014-04-01T02:00:00Z,30.3288,-87.8293,1.624,7.4,1111122 
DISL,ioos:station:DISL:BSCA:1,2014-04-01T02:30:00Z,30.3288,-87.8293,1.615,7.44,1111122 
DISL,ioos:station:DISL:BSCA:1,2014-04-01T03:00:00Z,30.3288,-87.8293,1.632,7.41,1111122 
DISL,ioos:station:DISL:BSCA:1,2014-04-01T03:30:00Z,30.3288,-87.8293,1.627,7.41,1111122 
DISL,ioos:station:DISL:BSCA:1,2014-04-01T04:00:00Z,30.3288,-87.8293,1.64,7.42,1111122 
DISL,ioos:station:DISL:BSCA:1,2014-04-01T04:30:00Z,30.3288,-87.8293,1.656,7.43,1111122 
DISL,ioos:station:DISL:BSCA:1,2014-04-01T05:00:00Z,30.3288,-87.8293,1.683,7.5,1111122 
DISL,ioos:station:DISL:BSCA:1,2014-04-01T05:30:00Z,30.3288,-87.8293,1.724,7.56,1111122 
DISL,ioos:station:DISL:BSCA:1,2014-04-01T06:00:00Z,30.3288,-87.8293,1.762,7.63,1111122 
DISL,ioos:station:DISL:BSCA:1,2014-04-01T06:30:00Z,30.3288,-87.8293,1.793,7.6,1111122 
DISL,ioos:station:DISL:BSCA:1,2014-04-01T07:00:00Z,30.3288,-87.8293,1.815,7.66,1111122 
DISL,ioos:station:DISL:BSCA:1,2014-04-01T07:30:00Z,30.3288,-87.8293,1.82,7.75,1111122 
DISL,ioos:station:DISL:BSCA:1,2014-04-01T08:00:00Z,30.3288,-87.8293,1.828,7.74,1111122 
DISL,ioos:station:DISL:BSCA:1,2014-04-01T08:30:00Z,30.3288,-87.8293,1.841,7.71,1111122 
DISL,ioos:station:DISL:BSCA:1,2014-04-01T09:00:00Z,30.3288,-87.8293,1.83,7.82,1111122 
DISL,ioos:station:DISL:BSCA:1,2014-04-01T09:30:00Z,30.3288,-87.8293,1.845,7.84,1111122 
DISL,ioos:station:DISL:BSCA:1,2014-04-01T10:00:00Z,30.3288,-87.8293,1.85,7.87,1111122 
DISL,ioos:station:DISL:BSCA:1,2014-04-01T10:30:00Z,30.3288,-87.8293,1.864,7.88,1111122 
DISL,ioos:station:DISL:BSCA:1,2014-04-01T11:00:00Z,30.3288,-87.8293,1.871,7.87,1111122 
DISL,ioos:station:DISL:BSCA:1,2014-04-01T11:30:00Z,30.3288,-87.8293,1.881,7.83,1111122 
DISL,ioos:station:DISL:BSCA:1,2014-04-01T12:00:00Z,30.3288,-87.8293,1.894,7.86,1111122 
DISL,ioos:station:DISL:BSCA:1,2014-04-01T12:30:00Z,30.3288,-87.8293,1.899,7.85,1111122 
DISL,ioos:station:DISL:BSCA:1,2014-04-01T13:00:00Z,30.3288,-87.8293,1.915,7.87,1111122 
DISL,ioos:station:DISL:BSCA:1,2014-04-01T13:30:00Z,30.3288,-87.8293,1.934,7.97,1111122 
DISL,ioos:station:DISL:BSCA:1,2014-04-01T14:00:00Z,30.3288,-87.8293,1.949,7.85,1111122 
DISL,ioos:station:DISL:BSCA:1,2014-04-01T14:30:00Z,30.3288,-87.8293,1.974,7.79,1111122 
DISL,ioos:station:DISL:BSCA:1,2014-04-01T15:00:00Z,30.3288,-87.8293,1.998,7.78,1111122 
DISL,ioos:station:DISL:BSCA:1,2014-04-01T15:30:00Z,30.3288,-87.8293,2.022,7.86,1111122 
DISL,ioos:station:DISL:BSCA:1,2014-04-01T16:00:00Z,30.3288,-87.8293,2.026,8.02,1111122 
DISL,ioos:station:DISL:BSCA:1,2014-04-01T16:30:00Z,30.3288,-87.8293,2.021,8.06,1111122 
DISL,ioos:station:DISL:BSCA:1,2014-04-01T17:00:00Z,30.3288,-87.8293,2.024,8.15,1111122 
DISL,ioos:station:DISL:BSCA:1,2014-04-01T17:30:00Z,30.3288,-87.8293,2.02,8.58,1111122 
DISL,ioos:station:DISL:BSCA:1,2014-04-01T18:00:00Z,30.3288,-87.8293,2.043,8.21,1111122 
DISL,ioos:station:DISL:BSCA:1,2014-04-01T18:30:00Z,30.3288,-87.8293,2.057,8.24,1111122 
DISL,ioos:station:DISL:BSCA:1,2014-04-01T19:00:00Z,30.3288,-87.8293,2.041,8.1,1111122 
DISL,ioos:station:DISL:BSCA:1,2014-04-01T19:30:00Z,30.3288,-87.8293,2.015,8.19,1111122 
DISL,ioos:station:DISL:BSCA:1,2014-04-01T20:00:00Z,30.3288,-87.8293,1.984,8.04,1111122 
DISL,ioos:station:DISL:BSCA:1,2014-04-01T20:30:00Z,30.3288,-87.8293,1.94,8.04,1111122 
DISL,ioos:station:DISL:BSCA:1,2014-04-01T21:00:00Z,30.3288,-87.8293,1.907,7.99,1111122 
DISL,ioos:station:DISL:BSCA:1,2014-04-01T21:30:00Z,30.3288,-87.8293,1.871,7.99,1111122 
DISL,ioos:station:DISL:BSCA:1,2014-04-01T22:00:00Z,30.3288,-87.8293,1.833,7.98,1111122 
DISL,ioos:station:DISL:BSCA:1,2014-04-01T22:30:00Z,30.3288,-87.8293,1.81,7.97,1111122 
DISL,ioos:station:DISL:BSCA:1,2014-04-01T23:00:00Z,30.3288,-87.8293,1.78,7.98,1111122 
DISL,ioos:station:DISL:BSCA:1,2014-04-01T23:30:00Z,30.3288,-87.8293,1.759,7.96,1111122 
DISL,ioos:station:DISL:BSCA:1,2014-04-02T00:00:00Z,30.3288,-87.8293,1.742,7.96,1111122 
DISL,ioos:station:DISL:BSCA:1,2014-04-02T00:30:00Z,30.3288,-87.8293,1.716,7.97,1111122 
DISL,ioos:station:DISL:BSCA:1,2014-04-02T01:00:00Z,30.3288,-87.8293,1.693,7.96,1111122 
DISL,ioos:station:DISL:BSCA:1,2014-04-02T01:30:00Z,30.3288,-87.8293,1.671,7.93,1111122 
DISL,ioos:station:DISL:BSCA:1,2014-04-02T02:00:00Z,30.3288,-87.8293,1.653,7.92,1111122 
DISL,ioos:station:DISL:BSCA:1,2014-04-02T02:30:00Z,30.3288,-87.8293,1.639,7.94,1111122 
DISL,ioos:station:DISL:BSCA:1,2014-04-02T03:00:00Z,30.3288,-87.8293,1.633,7.95,1111122 
DISL,ioos:station:DISL:BSCA:1,2014-04-02T03:30:00Z,30.3288,-87.8293,1.636,8.03,1111122 
DISL,ioos:station:DISL:BSCA:1,2014-04-02T04:00:00Z,30.3288,-87.8293,1.654,8.06,1111122 
DISL,ioos:station:DISL:BSCA:1,2014-04-02T04:30:00Z,30.3288,-87.8293,1.667,8.08,1111122 
DISL,ioos:station:DISL:BSCA:1,2014-04-02T05:00:00Z,30.3288,-87.8293,1.683,8.09,1111122 
DISL,ioos:station:DISL:BSCA:1,2014-04-02T05:30:00Z,30.3288,-87.8293,1.697,8.1,1111122 
DISL,ioos:station:DISL:BSCA:1,2014-04-02T06:00:00Z,30.3288,-87.8293,1.71,8.11,1111122 
DISL,ioos:station:DISL:BSCA:1,2014-04-02T06:30:00Z,30.3288,-87.8293,1.729,8.09,1111122 
DISL,ioos:station:DISL:BSCA:1,2014-04-02T07:00:00Z,30.3288,-87.8293,1.742,8.09,1111122 
DISL,ioos:station:DISL:BSCA:1,2014-04-02T07:30:00Z,30.3288,-87.8293,1.766,8.09,1111122 
DISL,ioos:station:DISL:BSCA:1,2014-04-02T08:00:00Z,30.3288,-87.8293,1.796,8.0,1111122 
DISL,ioos:station:DISL:BSCA:1,2014-04-02T08:30:00Z,30.3288,-87.8293,1.824,7.95,1111122 
DISL,ioos:station:DISL:BSCA:1,2014-04-02T09:00:00Z,30.3288,-87.8293,1.85,7.92,1111122 
DISL,ioos:station:DISL:BSCA:1,2014-04-02T09:30:00Z,30.3288,-87.8293,1.872,7.91,1111122 
DISL,ioos:station:DISL:BSCA:1,2014-04-02T10:00:00Z,30.3288,-87.8293,1.895,7.9,1111122 
DISL,ioos:station:DISL:BSCA:1,2014-04-02T10:30:00Z,30.3288,-87.8293,1.91,7.9,1111122 
DISL,ioos:station:DISL:BSCA:1,2014-04-02T11:00:00Z,30.3288,-87.8293,1.919,7.91,1111122 
DISL,ioos:station:DISL:BSCA:1,2014-04-02T11:30:00Z,30.3288,-87.8293,1.934,7.92,1111122 
DISL,ioos:station:DISL:BSCA:1,2014-04-02T12:00:00Z,30.3288,-87.8293,1.946,7.88,1111122 
DISL,ioos:station:DISL:BSCA:1,2014-04-02T12:30:00Z,30.3288,-87.8293,1.964,7.94,1111122 
DISL,ioos:station:DISL:BSCA:1,2014-04-02T13:00:00Z,30.3288,-87.8293,1.984,7.94,1111122 
DISL,ioos:station:DISL:BSCA:1,2014-04-02T13:30:00Z,30.3288,-87.8293,2.015,7.94,1111122 
DISL,ioos:station:DISL:BSCA:1,2014-04-02T14:00:00Z,30.3288,-87.8293,2.027,7.94,1111122 
DISL,ioos:station:DISL:BSCA:1,2014-04-02T14:30:00Z,30.3288,-87.8293,2.05,7.98,1111122 
DISL,ioos:station:DISL:BSCA:1,2014-04-02T15:00:00Z,30.3288,-87.8293,2.074,7.98,1111122 
DISL,ioos:station:DISL:BSCA:1,2014-04-02T15:30:00Z,30.3288,-87.8293,2.078,8.03,1111122 
DISL,ioos:station:DISL:BSCA:1,2014-04-02T16:00:00Z,30.3288,-87.8293,2.094,8.03,1111122 
DISL,ioos:station:DISL:BSCA:1,2014-04-02T16:30:00Z,30.3288,-87.8293,2.099,8.05,1111122 
DISL,ioos:station:DISL:BSCA:1,2014-04-02T17:00:00Z,30.3288,-87.8293,2.092,8.05,1111122 
DISL,ioos:station:DISL:BSCA:1,2014-04-02T17:30:00Z,30.3288,-87.8293,2.102,8.08,1111122 
DISL,ioos:station:DISL:BSCA:1,2014-04-02T18:00:00Z,30.3288,-87.8293,2.095,8.11,1111122 
DISL,ioos:station:DISL:BSCA:1,2014-04-02T18:30:00Z,30.3288,-87.8293,2.086,8.11,1111122 
DISL,ioos:station:DISL:BSCA:1,2014-04-02T19:00:00Z,30.3288,-87.8293,2.066,8.14,1111122 
DISL,ioos:station:DISL:BSCA:1,2014-04-02T19:30:00Z,30.3288,-87.8293,2.031,8.15,1111122 
DISL,ioos:station:DISL:BSCA:1,2014-04-02T20:00:00Z,30.3288,-87.8293,2.023,8.16,1111122 
DISL,ioos:station:DISL:BSCA:1,2014-04-02T20:30:00Z,30.3288,-87.8293,1.99,8.18,1111122 
DISL,ioos:station:DISL:BSCA:1,2014-04-02T21:00:00Z,30.3288,-87.8293,1.969,8.22,1111122 
DISL,ioos:station:DISL:BSCA:1,2014-04-02T21:30:00Z,30.3288,-87.8293,1.937,8.22,1111122 
DISL,ioos:station:DISL:BSCA:1,2014-04-02T22:00:00Z,30.3288,-87.8293,1.901,8.23,1111122 
DISL,ioos:station:DISL:BSCA:1,2014-04-02T22:30:00Z,30.3288,-87.8293,1.864,8.24,1111122 
DISL,ioos:station:DISL:BSCA:1,2014-04-02T23:00:00Z,30.3288,-87.8293,1.829,8.25,1111122 
DISL,ioos:station:DISL:BSCA:1,2014-04-02T23:30:00Z,30.3288,-87.8293,1.801,8.26,1111122 
DISL,ioos:station:DISL:BSCA:1,2014-04-03T00:00:00Z,30.3288,-87.8293,1.771,8.26,1111122 
DISL,ioos:station:DISL:BSCA:1,2014-04-03T00:30:00Z,30.3288,-87.8293,1.739,8.26,1111122 
DISL,ioos:station:DISL:BSCA:1,2014-04-03T01:00:00Z,30.3288,-87.8293,1.711,8.26,1111122 
DISL,ioos:station:DISL:BSCA:1,2014-04-03T01:30:00Z,30.3288,-87.8293,1.685,8.27,1111122 
DISL,ioos:station:DISL:BSCA:1,2014-04-03T02:00:00Z,30.3288,-87.8293,1.66,8.28,1111122 
DISL,ioos:station:DISL:BSCA:1,2014-04-03T02:30:00Z,30.3288,-87.8293,1.639,8.29,1111122 
DISL,ioos:station:DISL:BSCA:1,2014-04-03T03:00:00Z,30.3288,-87.8293,1.622,8.29,1111122 
DISL,ioos:station:DISL:BSCA:1,2014-04-03T03:30:00Z,30.3288,-87.8293,1.617,8.28,1111122 
DISL,ioos:station:DISL:BSCA:1,2014-04-03T04:00:00Z,30.3288,-87.8293,1.603,8.26,1111122 
DISL,ioos:station:DISL:BSCA:1,2014-04-03T04:30:00Z,30.3288,-87.8293,1.613,8.26,1111122 
DISL,ioos:station:DISL:BSCA:1,2014-04-03T05:00:00Z,30.3288,-87.8293,1.617,8.27,1111122 
DISL,ioos:station:DISL:BSCA:1,2014-04-03T05:30:00Z,30.3288,-87.8293,1.637,8.28,1111122 
DISL,ioos:station:DISL:BSCA:1,2014-04-03T06:00:00Z,30.3288,-87.8293,1.659,8.27,1111122 
DISL,ioos:station:DISL:BSCA:1,2014-04-03T06:30:00Z,30.3288,-87.8293,1.68,8.27,1111122 
DISL,ioos:station:DISL:BSCA:1,2014-04-03T07:00:00Z,30.3288,-87.8293,1.698,8.28,1111122 
DISL,ioos:station:DISL:BSCA:1,2014-04-03T07:30:00Z,30.3288,-87.8293,1.725,8.37,1111122 
DISL,ioos:station:DISL:BSCA:1,2014-04-03T08:00:00Z,30.3288,-87.8293,1.747,8.3,1111122 
DISL,ioos:station:DISL:BSCA:1,2014-04-03T08:30:00Z,30.3288,-87.8293,1.779,8.3,1111122 
DISL,ioos:station:DISL:BSCA:1,2014-04-03T09:00:00Z,30.3288,-87.8293,1.79,8.29,1111122 
DISL,ioos:station:DISL:BSCA:1,2014-04-03T09:30:00Z,30.3288,-87.8293,1.814,8.27,1111122 
DISL,ioos:station:DISL:BSCA:1,2014-04-03T10:00:00Z,30.3288,-87.8293,1.832,8.22,1111122 
DISL,ioos:station:DISL:BSCA:1,2014-04-03T10:30:00Z,30.3288,-87.8293,1.859,8.15,1111122 
DISL,ioos:station:DISL:BSCA:1,2014-04-03T11:00:00Z,30.3288,-87.8293,1.888,8.07,1111122 
DISL,ioos:station:DISL:BSCA:1,2014-04-03T11:30:00Z,30.3288,-87.8293,1.916,7.99,1111122 
DISL,ioos:station:DISL:BSCA:1,2014-04-03T12:00:00Z,30.3288,-87.8293,1.952,7.93,1111122 
DISL,ioos:station:DISL:BSCA:1,2014-04-03T12:30:00Z,30.3288,-87.8293,1.992,7.89,1111122 
DISL,ioos:station:DISL:BSCA:1,2014-04-03T13:00:00Z,30.3288,-87.8293,1.985,7.87,1111122 
DISL,ioos:station:DISL:BSCA:1,2014-04-03T13:30:00Z,30.3288,-87.8293,1.998,7.84,1111122 
DISL,ioos:station:DISL:BSCA:1,2014-04-03T14:00:00Z,30.3288,-87.8293,2.02,7.78,1111122 
DISL,ioos:station:DISL:BSCA:1,2014-04-03T14:30:00Z,30.3288,-87.8293,2.057,7.75,1111122 
DISL,ioos:station:DISL:BSCA:1,2014-04-03T15:00:00Z,30.3288,-87.8293,2.065,7.69,1111122 
DISL,ioos:station:DISL:BSCA:1,2014-04-03T15:30:00Z,30.3288,-87.8293,2.1,7.66,1111122 
DISL,ioos:station:DISL:BSCA:1,2014-04-03T16:00:00Z,30.3288,-87.8293,2.088,7.44,1111122 
DISL,ioos:station:DISL:BSCA:1,2014-04-03T16:30:00Z,30.3288,-87.8293,2.107,7.47,1111122 
DISL,ioos:station:DISL:BSCA:1,2014-04-03T17:00:00Z,30.3288,-87.8293,2.127,7.33,1111122 
DISL,ioos:station:DISL:BSCA:1,2014-04-03T17:30:00Z,30.3288,-87.8293,2.144,7.38,1111122 
DISL,ioos:station:DISL:BSCA:1,2014-04-03T18:00:00Z,30.3288,-87.8293,2.149,7.44,1111122 
DISL,ioos:station:DISL:BSCA:1,2014-04-03T18:30:00Z,30.3288,-87.8293,2.15,7.54,1111122 
DISL,ioos:station:DISL:BSCA:1,2014-04-03T19:00:00Z,30.3288,-87.8293,2.127,7.73,1111122 
DISL,ioos:station:DISL:BSCA:1,2014-04-03T19:30:00Z,30.3288,-87.8293,2.104,7.84,1111122 
DISL,ioos:station:DISL:BSCA:1,2014-04-03T20:00:00Z,30.3288,-87.8293,2.088,7.79,1111122 
DISL,ioos:station:DISL:BSCA:1,2014-04-03T20:30:00Z,30.3288,-87.8293,2.061,7.82,1111122 
DISL,ioos:station:DISL:BSCA:1,2014-04-03T21:00:00Z,30.3288,-87.8293,2.04,7.89,1111122 
DISL,ioos:station:DISL:BSCA:1,2014-04-03T21:30:00Z,30.3288,-87.8293,2.016,7.99,1111122 
DISL,ioos:station:DISL:BSCA:1,2014-04-03T22:00:00Z,30.3288,-87.8293,1.992,7.96,1111122 
DISL,ioos:station:DISL:BSCA:1,2014-04-03T22:30:00Z,30.3288,-87.8293,1.974,7.89,1111122 
DISL,ioos:station:DISL:BSCA:1,2014-04-03T23:00:00Z,30.3288,-87.8293,1.943,7.93,1111122 
DISL,ioos:station:DISL:BSCA:1,2014-04-03T23:30:00Z,30.3288,-87.8293,1.909,7.69,1111122 
DISL,ioos:station:DISL:BSCA:1,2014-04-04T00:00:00Z,30.3288,-87.8293,1.87,7.23,1111122 
DISL,ioos:station:DISL:BSCA:1,2014-04-04T00:30:00Z,30.3288,-87.8293,1.837,7.25,1111122 
DISL,ioos:station:DISL:BSCA:1,2014-04-04T01:00:00Z,30.3288,-87.8293,1.808,7.29,1111122 
DISL,ioos:station:DISL:BSCA:1,2014-04-04T01:30:00Z,30.3288,-87.8293,1.783,7.32,1111122 
DISL,ioos:station:DISL:BSCA:1,2014-04-04T02:00:00Z,30.3288,-87.8293,1.763,7.35,1111122 
DISL,ioos:station:DISL:BSCA:1,2014-04-04T02:30:00Z,30.3288,-87.8293,1.742,7.37,1111122 
DISL,ioos:station:DISL:BSCA:1,2014-04-04T03:00:00Z,30.3288,-87.8293,1.715,7.37,1111122 
DISL,ioos:station:DISL:BSCA:1,2014-04-04T03:30:00Z,30.3288,-87.8293,1.713,7.37,1111122 
DISL,ioos:station:DISL:BSCA:1,2014-04-04T04:00:00Z,30.3288,-87.8293,1.707,7.38,1111122 
DISL,ioos:station:DISL:BSCA:1,2014-04-04T04:30:00Z,30.3288,-87.8293,1.709,7.33,1111122 
DISL,ioos:station:DISL:BSCA:1,2014-04-04T05:00:00Z,30.3288,-87.8293,1.717,7.21,1111122 
DISL,ioos:station:DISL:BSCA:1,2014-04-04T05:30:00Z,30.3288,-87.8293,1.734,7.0,1111122 
DISL,ioos:station:DISL:BSCA:1,2014-04-04T06:00:00Z,30.3288,-87.8293,1.775,6.87,1111122 
DISL,ioos:station:DISL:BSCA:1,2014-04-04T06:30:00Z,30.3288,-87.8293,1.759,6.79,1111122 
DISL,ioos:station:DISL:BSCA:1,2014-04-04T07:00:00Z,30.3288,-87.8293,1.77,6.8,1111122 
DISL,ioos:station:DISL:BSCA:1,2014-04-04T07:30:00Z,30.3288,-87.8293,1.79,6.83,1111122 
DISL,ioos:station:DISL:BSCA:1,2014-04-04T08:00:00Z,30.3288,-87.8293,1.822,6.72,1111122 
DISL,ioos:station:DISL:BSCA:1,2014-04-04T08:30:00Z,30.3288,-87.8293,1.849,6.54,1111122 
DISL,ioos:station:DISL:BSCA:1,2014-04-04T09:00:00Z,30.3288,-87.8293,1.87,6.47,1111122 
DISL,ioos:station:DISL:BSCA:1,2014-04-04T09:30:00Z,30.3288,-87.8293,1.904,6.41,1111122 
DISL,ioos:station:DISL:BSCA:1,2014-04-04T10:00:00Z,30.3288,-87.8293,1.914,6.41,1111122 
DISL,ioos:station:DISL:BSCA:1,2014-04-04T10:30:00Z,30.3288,-87.8293,1.927,6.39,1111122 
DISL,ioos:station:DISL:BSCA:1,2014-04-04T11:00:00Z,30.3288,-87.8293,1.933,6.38,1111122 
DISL,ioos:station:DISL:BSCA:1,2014-04-04T11:30:00Z,30.3288,-87.8293,1.941,6.36,1111122 
DISL,ioos:station:DISL:BSCA:1,2014-04-04T12:00:00Z,30.3288,-87.8293,1.957,6.34,1111122 
DISL,ioos:station:DISL:BSCA:1,2014-04-04T12:30:00Z,30.3288,-87.8293,1.981,6.53,1111122 
DISL,ioos:station:DISL:BSCA:1,2014-04-04T13:00:00Z,30.3288,-87.8293,2.019,6.44,1111122 
DISL,ioos:station:DISL:BSCA:1,2014-04-04T13:30:00Z,30.3288,-87.8293,2.051,6.63,1111122 
DISL,ioos:station:DISL:BSCA:1,2014-04-04T14:00:00Z,30.3288,-87.8293,2.077,6.95,1111122 
DISL,ioos:station:DISL:BSCA:1,2014-04-04T14:30:00Z,30.3288,-87.8293,2.09,7.15,1111122 
DISL,ioos:station:DISL:BSCA:1,2014-04-04T15:00:00Z,30.3288,-87.8293,2.1,7.28,1111122 
DISL,ioos:station:DISL:BSCA:1,2014-04-04T15:30:00Z,30.3288,-87.8293,2.106,7.23,1111122 
DISL,ioos:station:DISL:BSCA:1,2014-04-04T16:00:00Z,30.3288,-87.8293,2.118,6.94,1111122 
DISL,ioos:station:DISL:BSCA:1,2014-04-04T16:30:00Z,30.3288,-87.8293,2.136,7.23,1111122 
DISL,ioos:station:DISL:BSCA:1,2014-04-04T17:00:00Z,30.3288,-87.8293,2.162,7.13,1111122 
DISL,ioos:station:DISL:BSCA:1,2014-04-04T17:30:00Z,30.3288,-87.8293,2.17,7.04,1111122 
DISL,ioos:station:DISL:BSCA:1,2014-04-04T18:00:00Z,30.3288,-87.8293,2.189,6.91,1111122 
DISL,ioos:station:DISL:BSCA:1,2014-04-04T18:30:00Z,30.3288,-87.8293,2.179,7.06,1111122 
DISL,ioos:station:DISL:BSCA:1,2014-04-04T19:00:00Z,30.3288,-87.8293,2.18,6.95,1111122 
DISL,ioos:station:DISL:BSCA:1,2014-04-04T19:30:00Z,30.3288,-87.8293,2.169,7.1,1111122 
DISL,ioos:station:DISL:BSCA:1,2014-04-04T20:00:00Z,30.3288,-87.8293,2.147,7.16,1111122 
DISL,ioos:station:DISL:BSCA:1,2014-04-04T20:30:00Z,30.3288,-87.8293,2.144,7.26,1111122 
DISL,ioos:station:DISL:BSCA:1,2014-04-04T21:00:00Z,30.3288,-87.8293,2.065,6.86,1111122 
DISL,ioos:station:DISL:BSCA:1,2014-04-04T21:30:00Z,30.3288,-87.8293,2.006,6.71,1111122 
DISL,ioos:station:DISL:BSCA:1,2014-04-04T22:00:00Z,30.3288,-87.8293,1.936,6.79,1111122 
DISL,ioos:station:DISL:BSCA:1,2014-04-04T22:30:00Z,30.3288,-87.8293,1.968,6.88,1111122 
DISL,ioos:station:DISL:BSCA:1,2014-04-04T23:00:00Z,30.3288,-87.8293,2.002,6.89,1111122 
DISL,ioos:station:DISL:BSCA:1,2014-04-04T23:30:00Z,30.3288,-87.8293,2.057,6.89,1111122 
DISL,ioos:station:DISL:BSCA:1,2014-04-05T00:00:00Z,30.3288,-87.8293,2.032,6.81,1111122 
DISL,ioos:station:DISL:BSCA:1,2014-04-05T00:30:00Z,30.3288,-87.8293,2.025,6.8,1111122 
DISL,ioos:station:DISL:BSCA:1,2014-04-05T01:00:00Z,30.3288,-87.8293,1.941,6.81,1111122 
DISL,ioos:station:DISL:BSCA:1,2014-04-05T01:30:00Z,30.3288,-87.8293,1.921,6.82,1111122 
DISL,ioos:station:DISL:BSCA:1,2014-04-05T02:00:00Z,30.3288,-87.8293,1.873,6.79,1111122 
DISL,ioos:station:DISL:BSCA:1,2014-04-05T02:30:00Z,30.3288,-87.8293,1.835,6.75,1111122 
DISL,ioos:station:DISL:BSCA:1,2014-04-05T03:00:00Z,30.3288,-87.8293,1.813,6.74,1111122 
DISL,ioos:station:DISL:BSCA:1,2014-04-05T03:30:00Z,30.3288,-87.8293,1.812,6.69,1111122 
DISL,ioos:station:DISL:BSCA:1,2014-04-05T04:00:00Z,30.3288,-87.8293,1.803,6.65,1111122 
DISL,ioos:station:DISL:BSCA:1,2014-04-05T04:30:00Z,30.3288,-87.8293,1.796,6.61,1111122 
DISL,ioos:station:DISL:BSCA:1,2014-04-05T05:00:00Z,30.3288,-87.8293,1.79,6.58,1111122 
DISL,ioos:station:DISL:BSCA:1,2014-04-05T05:30:00Z,30.3288,-87.8293,1.769,6.57,1111122 
DISL,ioos:station:DISL:BSCA:1,2014-04-05T06:00:00Z,30.3288,-87.8293,1.753,6.58,1111122 
DISL,ioos:station:DISL:BSCA:1,2014-04-05T06:30:00Z,30.3288,-87.8293,1.742,6.58,1111122 
DISL,ioos:station:DISL:BSCA:1,2014-04-05T07:00:00Z,30.3288,-87.8293,1.73,6.59,1111122 
DISL,ioos:station:DISL:BSCA:1,2014-04-05T07:30:00Z,30.3288,-87.8293,1.735,6.6,1111122 
DISL,ioos:station:DISL:BSCA:1,2014-04-05T08:00:00Z,30.3288,-87.8293,1.748,6.6,1111122 
DISL,ioos:station:DISL:BSCA:1,2014-04-05T08:30:00Z,30.3288,-87.8293,1.758,6.6,1111122 
DISL,ioos:station:DISL:BSCA:1,2014-04-05T09:00:00Z,30.3288,-87.8293,1.765,6.72,1111122 
DISL,ioos:station:DISL:BSCA:1,2014-04-05T09:30:00Z,30.3288,-87.8293,1.756,6.69,1111122 
DISL,ioos:station:DISL:BSCA:1,2014-04-05T10:00:00Z,30.3288,-87.8293,1.765,6.79,1111122 
DISL,ioos:station:DISL:BSCA:1,2014-04-05T10:30:00Z,30.3288,-87.8293,1.762,6.65,1111122 
DISL,ioos:station:DISL:BSCA:1,2014-04-05T11:00:00Z,30.3288,-87.8293,1.78,6.68,1111122 
DISL,ioos:station:DISL:BSCA:1,2014-04-05T11:30:00Z,30.3288,-87.8293,1.802,6.68,1111122 
DISL,ioos:station:DISL:BSCA:1,2014-04-05T12:00:00Z,30.3288,-87.8293,1.797,6.83,1111122 
DISL,ioos:station:DISL:BSCA:1,2014-04-05T12:30:00Z,30.3288,-87.8293,1.812,7.06,1111122 
DISL,ioos:station:DISL:BSCA:1,2014-04-05T13:00:00Z,30.3288,-87.8293,1.81,6.82,1111122 
DISL,ioos:station:DISL:BSCA:1,2014-04-05T13:30:00Z,30.3288,-87.8293,1.807,6.89,1111122 
DISL,ioos:station:DISL:BSCA:1,2014-04-05T14:00:00Z,30.3288,-87.8293,1.802,6.82,1111122 
DISL,ioos:station:DISL:BSCA:1,2014-04-05T14:30:00Z,30.3288,-87.8293,1.832,6.91,1111122 
DISL,ioos:station:DISL:BSCA:1,2014-04-05T15:00:00Z,30.3288,-87.8293,1.842,7.09,1111122 
DISL,ioos:station:DISL:BSCA:1,2014-04-05T15:30:00Z,30.3288,-87.8293,1.875,6.9,1111122 
DISL,ioos:station:DISL:BSCA:1,2014-04-05T16:00:00Z,30.3288,-87.8293,1.901,6.79,1111122 
DISL,ioos:station:DISL:BSCA:1,2014-04-05T16:30:00Z,30.3288,-87.8293,1.928,6.72,1111122 
DISL,ioos:station:DISL:BSCA:1,2014-04-05T17:00:00Z,30.3288,-87.8293,1.972,6.72,1111122 
DISL,ioos:station:DISL:BSCA:1,2014-04-05T17:30:00Z,30.3288,-87.8293,1.991,6.71,1111122 
DISL,ioos:station:DISL:BSCA:1,2014-04-05T18:00:00Z,30.3288,-87.8293,2.014,6.72,1111122 
DISL,ioos:station:DISL:BSCA:1,2014-04-05T18:30:00Z,30.3288,-87.8293,2.032,6.76,1111122 
DISL,ioos:station:DISL:BSCA:1,2014-04-05T19:00:00Z,30.3288,-87.8293,2.069,6.7,1111122 
DISL,ioos:station:DISL:BSCA:1,2014-04-05T19:30:00Z,30.3288,-87.8293,2.086,6.74,1111122 
DISL,ioos:station:DISL:BSCA:1,2014-04-05T20:00:00Z,30.3288,-87.8293,2.106,6.72,1111122 
DISL,ioos:station:DISL:BSCA:1,2014-04-05T20:30:00Z,30.3288,-87.8293,2.11,6.7,1111122 
DISL,ioos:station:DISL:BSCA:1,2014-04-05T21:00:00Z,30.3288,-87.8293,2.104,6.77,1111122 
DISL,ioos:station:DISL:BSCA:1,2014-04-05T21:30:00Z,30.3288,-87.8293,2.076,6.78,1111122 
DISL,ioos:station:DISL:BSCA:1,2014-04-05T22:00:00Z,30.3288,-87.8293,2.028,6.78,1111122 
DISL,ioos:station:DISL:BSCA:1,2014-04-05T22:30:00Z,30.3288,-87.8293,2.003,6.8,1111122 
DISL,ioos:station:DISL:BSCA:1,2014-04-05T23:00:00Z,30.3288,-87.8293,1.977,6.84,1111122 
DISL,ioos:station:DISL:BSCA:1,2014-04-05T23:30:00Z,30.3288,-87.8293,1.967,6.84,1111122 
DISL,ioos:station:DISL:BSCA:1,2014-04-06T00:00:00Z,30.3288,-87.8293,1.958,6.88,1111122 
DISL,ioos:station:DISL:BSCA:1,2014-04-06T00:30:00Z,30.3288,-87.8293,1.936,7.06,1111122 
DISL,ioos:station:DISL:BSCA:1,2014-04-06T01:00:00Z,30.3288,-87.8293,1.909,7.6,1111122 
DISL,ioos:station:DISL:BSCA:1,2014-04-06T01:30:00Z,30.3288,-87.8293,1.895,7.56,1111122 
DISL,ioos:station:DISL:BSCA:1,2014-04-06T02:00:00Z,30.3288,-87.8293,1.842,7.16,1111122 
DISL,ioos:station:DISL:BSCA:1,2014-04-06T02:30:00Z,30.3288,-87.8293,1.826,7.35,1111122 
DISL,ioos:station:DISL:BSCA:1,2014-04-06T03:00:00Z,30.3288,-87.8293,1.788,7.04,1111122 
DISL,ioos:station:DISL:BSCA:1,2014-04-06T03:30:00Z,30.3288,-87.8293,1.769,7.07,1111122 
DISL,ioos:station:DISL:BSCA:1,2014-04-06T04:00:00Z,30.3288,-87.8293,1.74,7.08,1111122 
DISL,ioos:station:DISL:BSCA:1,2014-04-06T04:30:00Z,30.3288,-87.8293,1.724,7.07,1111122 
DISL,ioos:station:DISL:BSCA:1,2014-04-06T05:00:00Z,30.3288,-87.8293,1.73,7.05,1111122 
DISL,ioos:station:DISL:BSCA:1,2014-04-06T05:30:00Z,30.3288,-87.8293,1.734,7.07,1111122 
DISL,ioos:station:DISL:BSCA:1,2014-04-06T06:00:00Z,30.3288,-87.8293,1.727,7.04,1111122 
DISL,ioos:station:DISL:BSCA:1,2014-04-06T06:30:00Z,30.3288,-87.8293,1.725,7.04,1111122 
DISL,ioos:station:DISL:BSCA:1,2014-04-06T07:00:00Z,30.3288,-87.8293,1.705,7.03,1111122 
DISL,ioos:station:DISL:BSCA:1,2014-04-06T07:30:00Z,30.3288,-87.8293,1.703,7.02,1111122 
DISL,ioos:station:DISL:BSCA:1,2014-04-06T08:00:00Z,30.3288,-87.8293,1.688,7.03,1111122 
DISL,ioos:station:DISL:BSCA:1,2014-04-06T08:30:00Z,30.3288,-87.8293,1.671,7.01,1111122 
DISL,ioos:station:DISL:BSCA:1,2014-04-06T09:00:00Z,30.3288,-87.8293,1.692,6.98,1111122 
DISL,ioos:station:DISL:BSCA:1,2014-04-06T09:30:00Z,30.3288,-87.8293,1.705,6.94,1111122 
DISL,ioos:station:DISL:BSCA:1,2014-04-06T10:00:00Z,30.3288,-87.8293,1.729,6.82,1111122 
DISL,ioos:station:DISL:BSCA:1,2014-04-06T10:30:00Z,30.3288,-87.8293,1.761,6.71,1111122 
DISL,ioos:station:DISL:BSCA:1,2014-04-06T11:00:00Z,30.3288,-87.8293,1.786,6.67,1111122 
DISL,ioos:station:DISL:BSCA:1,2014-04-06T11:30:00Z,30.3288,-87.8293,1.814,6.65,1111122 
DISL,ioos:station:DISL:BSCA:1,2014-04-06T12:00:00Z,30.3288,-87.8293,1.836,6.6,1111122 
DISL,ioos:station:DISL:BSCA:1,2014-04-06T12:30:00Z,30.3288,-87.8293,1.865,6.64,1111122 
DISL,ioos:station:DISL:BSCA:1,2014-04-06T13:00:00Z,30.3288,-87.8293,1.895,6.63,1111122 
DISL,ioos:station:DISL:BSCA:1,2014-04-06T13:30:00Z,30.3288,-87.8293,1.931,6.73,1111122 
DISL,ioos:station:DISL:BSCA:1,2014-04-06T14:00:00Z,30.3288,-87.8293,1.992,6.68,1111122 
DISL,ioos:station:DISL:BSCA:1,2014-04-06T14:30:00Z,30.3288,-87.8293,2.054,6.61,1111122 
DISL,ioos:station:DISL:BSCA:1,2014-04-06T15:00:00Z,30.3288,-87.8293,2.077,6.72,1111122 
DISL,ioos:station:DISL:BSCA:1,2014-04-06T15:30:00Z,30.3288,-87.8293,1.999,6.79,1111122 